Regional Weather Roundup
Issued by NWS

Current Version | Previous Version | Text Only | Print | Product List | Glossary Off
Versions: 1 2 3 4 5 6 7 8 9 10 11 12 13 14 15 16 17 18 19 20 21 22 23 24 25 26 27 28 29 30 31 32 33 34 35 36 37 38 39 40 41 42 43 44 45 46 47 48 49 50

000
ASUS44 KJAN 270410
RWRMS

MISSISSIPPI HOURLY WEATHER ROUNDUP
NATIONAL WEATHER SERVICE JACKSON MS
1000 PM CST WED NOV 26 2014

NOTE: "FAIR: INDICATES FEW OR NO CLOUDS BELOW 12,000 FEET WITH NO
SIGNIFICANT WEATHER AND/OR OBSTRUCTIONS TO VISIBILITY.

MSZ001>002-007>008-010>013-018>021-025>028-034>036-270500-
NORTHWEST MISSISSIPPI

CITY           SKY/WX    TMP DP  RH WIND       PRES   REMARKS
CLARKSDALE     FAIR      37  36  93 CALM      30.21R
CLEVELAND      FAIR      46  36  68 W8        30.21S
GREENWOOD      CLEAR     38  33  82 S5        30.21R WCI  34
GREENVILLE     CLEAR     45  33  63 W7        30.21R
GRENADA        FAIR      34  32  93 CALM      30.20R
OLIVE BRANCH   MOCLDY    41  36  81 W6        30.18R
OXFORD         FAIR      34  32  93 CALM      30.20R
TUNICA         CLEAR     36  34  93 SW3       30.20S
$$

MSZ003>006-009-014>017-022>024-029>033-037>039-270500-
NORTHEAST MISSISSIPPI

CITY           SKY/WX    TMP DP  RH WIND       PRES   REMARKS
COLUMBUS AFB   CLEAR     44  29  55 NW3       30.18R
CORINTH        FAIR      37  32  81 NW5       30.15S WCI  34
GOLDN TRIANGLE CLEAR     45  30  57 NW5       30.17R
STARKVILLE     FAIR      41  34  75 CALM      30.18R
TUPELO         MOCLDY    44  33  65 NW3       30.17R
$$

MSZ040-058-270500-
CENTRAL MISSISSIPPI

CITY           SKY/WX    TMP DP  RH WIND       PRES   REMARKS
JACKSON INTL   CLEAR     50  34  54 W3        30.21R
JACKSON HAWKNS CLEAR     49  34  56 NW6       30.22R
MERIDIAN KEY   CLEAR     46  35  65 CALM      30.19R
MERIDIAN NAS   CLEAR     48  33  56 NW5       30.19R
RAYMOND        FAIR      48  45  87 SW3       30.23R
VICKSBURG      CLEAR     49  36  61 NW8       30.25R
$$

MSZ059>079-270500-
SOUTH MISSISSIPPI

CITY           SKY/WX    TMP DP  RH WIND       PRES   REMARKS
BROOKHAVEN     FAIR      54  39  58 W5        30.24R
HATTIESBURG    CLEAR     55  39  54 W7        30.21R
MCCOMB         CLEAR     54  41  61 W6        30.22R
NATCHEZ        CLEAR     55  37  50 NW8       30.26R
PINE BELT      CLEAR     48  37  66 NW6       30.22R
$$

MSZ080>082-270500-
COASTAL MISSISSIPPI

CITY           SKY/WX    TMP DP  RH WIND       PRES   REMARKS
BILOXI         CLEAR     57  46  65 W8        30.22R
PASCAGOULA     CLEAR     56  46  69 SW7       30.22R
GULFPORT       CLEAR     55  45  68 W5        30.22R
$$



USA.gov is the U.S. government's official web portal to all federal, state and local government web resources and services.